Voltar ao catálogo

STARLINK-5463

AtivoComunicaçõesVLEO
NORAD 55673·PAYLOAD·🇺🇸 United States

Lançado Feb 17, 2023 de Vandenberg Space Force Base

Loading…

Próximas Passagens (próximas 24 horas)

TLE

AtualizadoSource: CelesTrak SupGP

Época: Sep 15, 2026, 02:59 UTC

1 55673C 23021AX  26258.12479167 -.00026519  00000+0 -22224-2 0  2580
2 55673  70.0021  46.7300 0003028 267.9796  45.4277 14.98343712    19

Acompanhe STARLINK-5463 em tempo real com AllMySat

Download on the App Store